This is the latest recevied weather packets stored in our database for station/object AL7BX-WX. If no packets are shown the sender has not sent any weather packets the latest 10 day(s).
| Time | Temp. | Humidity | Pressure | Rain* | Wind** | Luminosity | Snow |
|---|---|---|---|---|---|---|---|
| 1778186703 | 24.44° C | 22% | 0 hPa | 0 mm | - | - | - |
| 1778180943 | 23.33° C | 23% | 0 hPa | 0 mm | - | - | - |
| 1778178963 | 22.22° C | 27% | 0 hPa | 0 mm | - | - | - |
| 1778175903 | 21.11° C | 30% | 0 hPa | 0 mm | - | - | - |
| 1778173204 | 18.89° C | 30% | 0 hPa | 0 mm | - | - | - |
| 1778170143 | 16.11° C | 34% | 0 hPa | 0 mm | - | - | - |
| 1778168163 | 13.89° C | 38% | 0 hPa | 0 mm | - | - | - |
| 1778166543 | 13.33° C | 41% | 0 hPa | 0 mm | - | - | - |
| 1778165643 | 11.67° C | 41% | 0 hPa | 0 mm | - | - | - |
| 1778161503 | 3.33° C | 66% | 0 hPa | 0 mm | - | - | - |
| 1778160963 | 2.78° C | 63% | 0 hPa | 0 mm | - | - | - |
| 1778160553 | 2.78° C | 63% | 0 hPa | 0 mm | - | - | - |
| 1778158443 | 1.67° C | 59% | 0 hPa | 0 mm | - | - | - |
| 1778154843 | 1.67° C | 57% | 0 hPa | 0 mm | - | - | - |
| 1778153223 | 2.22° C | 55% | 0 hPa | 0 mm | - | - | - |
| 1778152683 | 2.22° C | 55% | 0 hPa | 0 mm | - | - | - |
| 1778150703 | 3.33° C | 50% | 0 hPa | 0 mm | - | - | - |
| 1778150293 | 3.33° C | 50% | 0 hPa | 0 mm | - | - | - |
| 1778149623 | 2.78° C | 49% | 0 hPa | 0 mm | - | - | - |
| 1778147643 | 2.78° C | 49% | 0 hPa | 0 mm | - | - | - |
| 1778144534 | 3.89° C | 51% | 0 hPa | 0 mm | - | - | - |
| 1778143503 | 3.33° C | 49% | 0 hPa | 0 mm | - | - | - |
| 1778138412 | 6.11° C | 42% | 0 hPa | 0 mm | - | - | - |
| 1778133606 | 8.89° C | 40% | 0 hPa | 0 mm | - | - | - |
| 1778131083 | 7.22° C | 40% | 0 hPa | 0 mm | - | - | - |
* Rain latest hour (hover to see other rain measurements)
** Current wind speed in m/s (hover to see current wind gust speed)